EW7554 Weather Reports


time (UTC)temp
C
wind
direction
speed
KPH
gust
KPH
rain 1hr
cm
rain 24hr
cm
rain mn
cm
humidity
%
barometer
mb
20260904211523 30 355 6.4 14.5 0.00 0.00 0.00 63 1011.6
20260904210027 30 32 4.8 16.1 0.00 0.00 0.00 63 1011.7
20260904204517 30 301 3.2 12.9 0.00 0.00 0.00 65 1011.5
20260904203016 29 9 6.4 14.5 0.00 0.00 0.00 66 1011.3
20260904201512 29 351 1.6 14.5 0.00 0.00 0.00 68 1011.1
20260904190019 28 86 4.8 16.1 0.00 0.00 0.00 71 1011.8
20260904184512 28 355 8.0 20.9 0.00 0.08 0.00 71 1011.8
20260904183014 27 5 6.4 17.7 0.00 0.08 0.00 73 1011.7
20260904181510 27 350 8.0 19.3 0.00 0.08 0.00 74 1011.7
20260904180011 27 350 11.3 20.9 0.00 0.08 0.00 73 1011.7
20260904174507 27 355 4.8 17.7 0.00 0.08 0.00 74 1011.5
20260904173004 27 13 6.4 16.1 0.00 0.08 0.00 74 1011.4
20260904171502 27 355 8.0 16.1 0.00 0.08 0.00 74 1011.3
20260904170100 27 351 4.8 19.3 0.00 0.08 0.00 76 1011.2
20260904164559 27 334 6.4 16.1 0.00 0.08 0.00 75 1011.2
20260904163058 28 355 6.4 17.7 0.00 0.08 0.00 74 1011.0
20260904161553 29 5 6.4 17.7 0.00 0.08 0.00 72 1010.8
20260904160050 29 338 4.8 11.3 0.00 0.08 0.00 72 1010.6
20260904154546 29 322 3.2 9.7 0.00 0.08 0.00 70 1010.6
20260904153044 28 11 1.6 6.4 0.00 0.08 0.00 72 1010.3
20260904151538 28 298 1.6 6.4 0.00 0.08 0.00 73 1010.2
20260904150038 28 254 1.6 4.8 0.00 0.08 0.00 75 1010.1
20260904144530 27 200 1.6 4.8 0.00 0.08 0.00 77 1010.0
20260904143026 27 355 1.6 6.4 0.00 0.08 0.00 76 1010.1
20260904141526 27 146 0.0 3.2 0.00 0.08 0.00 76 1010.0
20260904140018 26 133 0.0 3.2 0.00 0.08 0.00 79 1009.9
20260904134514 26 40 0.0 3.2 0.00 0.08 0.00 79 1010.1
20260904133010 26 37 0.0 3.2 0.00 0.08 0.00 82 1010.1
20260904131506 25 37 1.6 4.8 0.00 0.08 0.00 84 1009.9
20260904130002 24 35 0.0 3.2 0.00 0.08 0.00 87 1009.9
20260904124558 23 35 0.0 4.8 0.00 0.08 0.00 89 1009.7
20260904123057 23 35 1.6 4.8 0.00 0.08 0.00 89 1009.6
20260904121550 22 38 1.6 6.4 0.00 0.08 0.00 89 1009.2
20260904120051 22 55 0.0 4.8 0.00 0.08 0.00 89 1009.2
20260904114548 22 54 3.2 6.4 0.00 0.08 0.00 89 1009.2
20260904113044 22 50 0.0 4.8 0.00 0.08 0.00 89 1009.0
20260904111545 23 48 3.2 4.8 0.00 0.08 0.00 88 1008.9
20260904110042 23 49 1.6 3.2 0.00 0.08 0.00 88 1008.9
20260904104540 23 49 1.6 4.8 0.00 0.08 0.00 88 1008.9
20260904103050 23 40 3.2 4.8 0.00 0.08 0.00 88 1008.9
20260904101539 23 41 3.2 6.4 0.00 0.08 0.00 87 1009.0
20260904100035 23 77 1.6 6.4 0.00 0.08 0.00 86 1008.8
20260904094532 24 161 1.6 3.2 0.00 0.08 0.00 85 1008.7
20260904093031 24 161 0.0 4.8 0.00 0.08 0.00 85 1008.6
20260904091530 24 161 3.2 8.0 0.00 0.08 0.00 85 1008.4
20260904090029 24 161 3.2 4.8 0.00 0.08 0.00 85 1008.4
20260904084527 25 161 1.6 3.2 0.00 0.08 0.00 84 1008.4
20260904083034 25 161 0.0 4.8 0.00 0.08 0.00 84 1008.3
20260904081526 25 160 1.6 4.8 0.00 0.08 0.00 84 1008.2
20260904080026 25 146 3.2 6.4 0.00 0.08 0.00 84 1008.2
20260904074543 25 147 0.0 3.2 0.00 0.08 0.00 83 1008.2
20260904073033 25 147 0.0 6.4 0.00 0.08 0.00 83 1008.3
20260904071523 25 150 0.0 3.2 0.00 0.08 0.00 83 1008.3
20260904070023 25 150 0.0 3.2 0.00 0.08 0.00 82 1008.4
20260904064520 25 150 1.6 4.8 0.00 0.08 0.00 82 1008.3
20260904063020 25 151 3.2 8.0 0.00 0.08 0.00 81 1008.4
20260904061519 25 154 3.2 9.7 0.00 0.08 0.00 81 1008.3
20260904060024 25 157 3.2 9.7 0.00 0.08 0.00 81 1008.4
20260904054517 25 159 4.8 9.7 0.00 0.08 0.00 80 1008.4
20260904053020 25 159 3.2 8.0 0.00 0.08 0.00 80 1008.3
20260904051513 26 146 3.2 9.7 0.00 0.08 0.00 79 1008.3
20260904050010 26 149 3.2 8.0 0.00 0.08 0.00 79 1008.2
20260904044510 26 153 3.2 12.9 0.00 0.08 0.08 78 1008.2
20260904043015 26 152 3.2 9.7 0.00 0.08 0.08 78 1008.1
20260904041509 26 149 3.2 9.7 0.00 0.08 0.08 77 1008.1
20260904040009 26 166 6.4 12.9 0.00 0.08 0.08 76 1008.1
20260904034508 26 163 3.2 11.3 0.00 0.08 0.08 75 1008.2
20260904033007 27 152 3.2 11.3 0.00 0.08 0.08 74 1008.1
20260904031507 27 163 4.8 14.5 0.00 0.08 0.08 73 1008.2
20260904030007 27 175 6.4 14.5 0.00 0.08 0.08 73 1008.3
20260904024506 27 194 6.4 14.5 0.00 0.08 0.08 74 1008.2
20260904023006 27 101 1.6 4.8 0.00 0.08 0.08 72 1008.2
20260904021512 27 142 1.6 11.3 0.00 0.08 0.08 72 1008.1
20260904020006 27 157 3.2 11.3 0.00 0.08 0.08 71 1008.0
20260904014504 27 167 6.4 12.9 0.00 0.08 0.08 70 1007.9
20260904013004 28 167 6.4 14.5 0.00 0.08 0.08 69 1007.8
20260904011503 28 171 8.0 14.5 0.00 0.08 0.08 68 1007.7
20260904010005 28 142 8.0 14.5 0.00 0.08 0.08 68 1007.5
20260904004502 28 171 6.4 14.5 0.00 0.08 0.08 67 1007.5
20260904003002 28 174 8.0 19.3 0.00 0.08 0.08 65 1007.5
20260904001501 29 170 6.4 14.5 0.00 0.08 0.08 64 1007.5
20260904000003 29 184 12.9 19.3 0.00 0.08 0.08 63 1007.6
20260903234601 30 140 11.3 25.7 0.00 0.08 0.08 62 1007.6
20260903233113 30 175 11.3 27.4 0.00 0.08 0.08 61 1007.5
20260903231600 30 157 12.9 24.1 0.00 0.08 0.08 61 1007.2
20260903230059 30 183 16.1 32.2 0.00 0.08 0.08 59 1006.8
20260903224559 30 169 16.1 27.4 0.00 0.08 0.08 59 1006.9
20260903223113 30 142 14.5 25.7 0.00 0.08 0.08 58 1006.9
20260903221556 30 168 14.5 22.5 0.00 0.08 0.08 58 1007.0
20260903220155 30 159 17.7 35.4 0.00 0.08 0.08 58 1007.0
20260903214553 30 163 14.5 27.4 0.00 0.08 0.08 59 1007.0
20260903213052 30 158 14.5 27.4 0.00 0.08 0.08 59 1007.2